Torna al catalogo

FLOCK 4H 26

AttivoScienzaSSO
NORAD 66729·PAYLOAD·🇺🇸 United States

Lanciato Nov 28, 2025 da Vandenberg Space Force Base

Loading…

Prossimi Passaggi (prossime 24 ore)

TLE

AggiornatoSource: CelesTrak SupGP

Epoca: Sep 14, 2026, 16:45 UTC

1 66729C 25276BR  26257.69799769  .00003672  00000+0  16807-3 0  2575
2 66729  97.4114 329.6190 0006027  67.7069 263.5928 15.20565571    11

Traccia FLOCK 4H 26 in tempo reale con AllMySat

Download on the App Store